TimeCST,TemperatureF,Dew PointF,Humidity,Sea Level PressureIn,VisibilityMPH,Wind Direction,Wind SpeedMPH,Gust SpeedMPH,PrecipitationIn,Events,Conditions,WindDirDegrees,DateUTC
12:53 AM,46.0,43.0,89,30.04,7.0,NE,5.8,-,N/A,,Overcast,40,2012-11-06 06:53:00
1:53 AM,46.0,43.0,89,30.05,6.0,NNE,4.6,-,N/A,,Overcast,30,2012-11-06 07:53:00
2:18 AM,46.4,42.8,87,30.05,6.0,NNE,3.5,-,N/A,,Overcast,20,2012-11-06 08:18:00
2:33 AM,46.4,42.8,87,30.05,7.0,NNE,4.6,-,N/A,,Overcast,20,2012-11-06 08:33:00
2:53 AM,46.0,42.1,86,30.04,6.0,NE,5.8,-,N/A,,Overcast,40,2012-11-06 08:53:00
3:13 AM,46.4,42.8,87,30.04,6.0,NE,6.9,-,N/A,,Overcast,40,2012-11-06 09:13:00
3:45 AM,46.4,42.8,87,30.04,6.0,NNE,4.6,-,N/A,,Overcast,30,2012-11-06 09:45:00
3:53 AM,46.0,42.1,86,30.04,6.0,NNE,3.5,-,N/A,,Overcast,20,2012-11-06 09:53:00
4:53 AM,46.0,42.1,86,30.06,6.0,North,4.6,-,N/A,,Overcast,10,2012-11-06 10:53:00
5:53 AM,46.0,42.1,86,30.06,6.0,North,3.5,-,N/A,,Overcast,360,2012-11-06 11:53:00
6:53 AM,46.0,42.1,86,30.08,4.0,NNE,3.5,-,N/A,,Overcast,30,2012-11-06 12:53:00
7:53 AM,46.0,42.1,86,30.07,4.0,ENE,3.5,-,N/A,,Overcast,70,2012-11-06 13:53:00
8:53 AM,46.9,42.1,83,30.10,5.0,Calm,Calm,-,N/A,,Haze,0,2012-11-06 14:53:00
9:53 AM,46.9,43.0,86,30.10,6.0,West,4.6,-,N/A,,Overcast,280,2012-11-06 15:53:00
10:46 AM,48.2,42.8,82,30.09,8.0,WSW,3.5,-,N/A,,Overcast,240,2012-11-06 16:46:00
10:53 AM,48.9,43.0,80,30.08,9.0,Calm,Calm,-,N/A,,Overcast,0,2012-11-06 16:53:00
11:00 AM,50.0,44.6,82,30.07,9.0,South,3.5,-,N/A,,Mostly Cloudy,190,2012-11-06 17:00:00
11:39 AM,51.8,42.8,71,30.06,10.0,WSW,4.6,-,N/A,,Mostly Cloudy,240,2012-11-06 17:39:00
11:53 AM,51.1,42.1,71,30.05,10.0,Variable,3.5,-,N/A,,Overcast,0,2012-11-06 17:53:00
12:53 PM,53.1,43.0,69,30.04,10.0,West,10.4,-,N/A,,Mostly Cloudy,270,2012-11-06 18:53:00
1:53 PM,52.0,42.1,69,30.01,10.0,WSW,8.1,-,N/A,,Overcast,250,2012-11-06 19:53:00
2:53 PM,52.0,43.0,71,30.00,10.0,WSW,5.8,-,0.00,Rain,Light Rain,250,2012-11-06 20:53:00
3:15 PM,51.8,42.8,71,30.00,10.0,West,8.1,-,0.00,,Overcast,260,2012-11-06 21:15:00
3:46 PM,51.8,42.8,71,29.99,10.0,West,8.1,-,0.00,,Overcast,280,2012-11-06 21:46:00
3:53 PM,52.0,43.0,71,29.99,10.0,WSW,8.1,-,0.00,,Mostly Cloudy,240,2012-11-06 21:53:00
4:53 PM,51.1,43.0,74,29.99,10.0,West,8.1,-,N/A,,Clear,270,2012-11-06 22:53:00
5:53 PM,48.0,42.1,80,29.99,10.0,SSW,3.5,-,N/A,,Partly Cloudy,210,2012-11-06 23:53:00
6:53 PM,44.1,42.1,93,30.02,10.0,Calm,Calm,-,N/A,,Partly Cloudy,0,2012-11-07 00:53:00
7:53 PM,43.0,39.9,89,30.02,9.0,Calm,Calm,-,N/A,,Clear,0,2012-11-07 01:53:00
8:53 PM,42.1,39.9,92,30.01,9.0,Calm,Calm,-,N/A,,Clear,0,2012-11-07 02:53:00
9:53 PM,44.1,41.0,89,30.03,8.0,NNE,3.5,-,N/A,,Mostly Cloudy,20,2012-11-07 03:53:00
10:53 PM,44.1,39.9,85,30.01,10.0,Calm,Calm,-,N/A,,Clear,0,2012-11-07 04:53:00
11:53 PM,42.1,39.9,92,30.01,9.0,West,3.5,-,N/A,,Clear,280,2012-11-07 05:53:00